Location: Banff
(51.1670°N, 115.5670°W)
Time: 15:10:15
(UTC-06:00)

Daily predictions for brighter satellites

Satellite Brightness Start Highest point End
(mag) Time Altitude Azimuth Time Altitude Azimuth Time Altitude Azimuth
ALOS 4.5 22:05:44 10° SSW 22:09:38 26° W 22:13:34 10° NW
Meteor 1-27 Rocket 4.0 22:05:55 10° NNW 22:11:30 72° W 22:16:59 10° S
SL-8 R/B 3.9 22:06:50 10° WSW 22:11:34 55° SSE 22:16:16 10° E
Okean 3 3.5 22:07:23 10° N 22:11:42 81° ENE 22:15:57 10° SSE
ERS-1 Rocket 3.7 22:06:59 10° S 22:11:56 56° W 22:16:55 10° NNW
Gbstr 26 Del rocket 3.4 22:07:11 10° W 22:12:55 89° S 22:17:30 10° ESE
Cosmos 1140 Rocket 3.5 22:08:04 10° NNW 22:13:15 88° WSW 22:18:25 10° SSE
Cosmos 1782 4.3 22:09:43 10° NNW 22:13:28 38° W 22:17:13 10° SSW
MetOp-B 4.2 22:08:29 10° SSE 22:13:48 70° ENE 22:19:09 10° NNW
CZ-4B R/B 4.2 22:20:16 10° NNE 22:24:43 32° E 22:29:03 10° SSE
Cosmos 1242 Rocket 2.6 22:24:09 10° NNW 22:27:50 87° ENE 22:31:33 10° SSE
H-2A R/B 3.0 22:23:15 10° SE 22:28:04 35° ENE 22:32:48 10° N
Cosmos 1452 Rocket 3.5 22:22:48 10° SSW 22:28:04 82° ESE 22:33:24 10° NNE
Okean 2 Rocket 3.2 22:25:13 10° S 22:29:33 58° E 22:33:53 10° NNE
ISS -2.5 22:28:37 10° SSW 22:31:30 29° SSE 22:34:24 10° E
SL-08 RB Rocket 4.1 22:27:51 10° SE 22:32:19 51° ENE 22:36:51 10° N
Cosmos 1184 Rocket 2.8 22:29:09 10° S 22:32:29 75° E 22:35:51 10° NNE
ARGOS 3.3 22:28:32 10° SSE 22:33:50 66° ENE 22:39:10 10° N
YAOGAN 6 2.5 22:31:07 10° SSE 22:34:37 89° SSW 22:38:12 10° NNW
Cosmos 1939 Rocket 4.3 22:31:37 10° SSW 22:35:15 36° W 22:38:57 10° NNW
Cosmos 1408 2.7 22:33:25 10° SSW 22:37:04 78° W 22:40:44 10° N
Terra 2.8 22:35:40 10° SE 22:39:51 34° ENE 22:44:09 10° N
Cosmos 1782 Rocket 3.6 22:35:29 10° S 22:39:57 86° ESE 22:44:29 10° N
Cosmos 1238 Rocket 3.7 22:38:04 10° NNW 22:41:06 40° W 22:44:32 10° SSW
SPOT 1/Viking Rocket 3.6 22:38:15 10° SSE 22:43:28 85° ENE 22:48:44 10° NNW
AVUM R/B 3.5 22:40:17 10° NNW 22:43:48 66° NE 22:46:42 14° SE
Cosmos 1825 2.8 22:44:50 10° SSW 22:48:37 58° WNW 22:52:25 10° N
Cosmos 1975 Rocket 3.8 22:45:23 10° NNW 22:49:36 51° W 22:53:48 10° S
Meteor 2-13 Rocket 4.5 22:43:37 10° S 22:49:46 81° E 22:55:58 10° NNE
SPOT 5 3.8 22:45:35 10° S 22:50:47 53° W 22:56:03 10° NNW
Okean 1 4.3 22:47:38 10° N 22:51:23 34° ENE 22:54:20 15° SE
Cosmos 2218 Rocket 4.2 22:46:37 10° S 22:52:53 61° E 22:59:12 10° NNE
Cosmos 1833 Rocket 2.7 22:48:31 10° NNW 22:54:11 88° WSW 22:59:10 14° SSE
Cosmos 2084 3.1 22:51:07 10° SW 22:54:57 89° NW 22:58:50 10° NE
CARTOSAT-1 4.1 22:52:52 14° SE 22:56:16 44° ENE 23:00:24 10° N
UNK 4.5 22:51:29 10° NNE 22:57:46 76° ESE 23:03:44 10° SSW
DELTA 2 DEB (DPAF) 4.3 22:56:30 14° SSE 23:00:15 64° ENE 23:04:42 10° N
Cosmos 1727 Rocket 4.0 22:55:17 10° N 23:01:29 74° ENE 23:07:07 13° SSE
Cosmos 1536 Rocket 3.6 22:58:01 10° N 23:02:32 77° ENE 23:06:20 14° SSE
Cosmos 2278 Rocket 2.4 22:57:23 10° SSW 23:03:05 79° WNW 23:08:49 10° NNE
Cosmos 1844 Rocket 3.9 22:57:57 10° SW 23:03:23 46° NW 23:08:50 10° NNE
Lacrosse 5 3.6 23:04:09 13° ESE 23:04:09 13° ESE 23:06:02 10° E
Cosmos 1959 Rocket 4.4 22:59:49 10° S 23:05:54 74° E 23:12:00 10° NNE
Meteor 2-8 Rocket 4.5 23:05:04 10° N 23:11:16 86° E 23:16:47 13° S
Cosmos 1812 2.8 23:08:04 10° N 23:11:56 63° ENE 23:14:33 19° SSE
ASTEX 1 4.2 23:10:13 10° NNE 23:14:45 34° E 23:17:44 18° SE
USA 229 DEB 4.1 23:08:14 10° NW 23:15:10 59° SW 23:20:58 16° SSE
USA 229 4.1 23:08:20 10° NW 23:15:17 59° SW 23:21:04 16° SSE
Meteor 1-18 Rocket 4.4 23:10:00 10° NNW 23:15:56 85° W 23:21:09 14° S
Cosmos 2084 Rocket 4.5 23:13:01 10° NW 23:16:36 35° NNE 23:19:58 12° E
Cosmos 2082 Rocket 2.8 23:12:20 10° NW 23:17:52 51° WSW 23:22:40 13° S
Cosmos 1339 Rocket 4.5 23:18:10 10° N 23:24:21 88° E 23:29:30 16° S
DMSP B5D2-2 4.4 23:20:17 10° NNE 23:25:20 46° E 23:28:54 18° SSE
Meteor 1-14 Rocket 4.4 23:20:50 10° SSW 23:26:30 77° WNW 23:32:05 10° N
BREEZE-M DEB 4.1 23:23:59 10° WSW 23:27:28 50° SSE 23:28:40 26° ESE
Cosmos 1331 Rocket 4.3 23:24:05 16° S 23:27:49 44° ESE 23:32:43 10° NE
SL-8 Rocket 4.3 23:21:39 10° SSW 23:27:54 70° WNW 23:34:08 10° N
Meteor 1-13 Rocket 4.5 23:27:26 10° N 23:33:23 67° ENE 23:37:28 21° SSE
NOSS 3-1 (A) 4.1 23:26:12 10° NW 23:33:31 78° NE 23:40:01 17° SE
IGS 5A 3.4 23:30:57 22° SSE 23:33:36 87° ENE 23:37:48 10° NNW
Cosmos 1110 Rocket 4.1 23:31:04 14° S 23:35:31 57° ESE 23:40:38 10° NNE
Cosmos 2151 Rocket 3.9 23:31:21 10° SSW 23:35:51 70° WNW 23:40:25 10° N
Cosmos 1025 Rocket 3.8 23:32:32 10° N 23:36:42 39° ENE 23:38:57 23° SE
CZ-4 R/B 3.8 23:32:25 10° NNE 23:37:08 82° WNW 23:41:47 10° SSW
Lacrosse 5 rocket 3.0 23:38:52 15° E 23:38:52 15° E 23:39:59 10° E
Cosmos 2297 3.9 23:33:48 10° SSW 23:39:32 79° WNW 23:45:20 10° NNE
Cosmos 1300 Rocket 3.5 23:47:41 22° S 23:50:29 76° E 23:54:57 10° NNE
Cosmos 2123 Rocket 4.5 23:46:10 10° N 23:52:16 49° ENE 23:56:01 23° SE
Meteor 1-11 Rocket 4.1 23:49:24 23° SSE 23:52:47 50° E 23:58:18 10° NNE
SL-8 R/B 3.7 23:49:07 10° W 23:53:53 61° S 23:57:06 20° ESE
ALOS 2 4.3 23:52:11 15° ESE 23:54:32 24° ENE 23:58:02 10° N
BREEZE-M TANK 3.4 23:45:24 10° W 23:54:37 43° SSW 23:56:12 29° SSE
